Time,TemperatureF,DewpointF,PressureIn,WindDirection,WindDirectionDegrees,WindSpeedMPH,WindSpeedGustMPH,Humidity,HourlyPrecipIn,Conditions,Clouds,dailyrainin,SoftwareType,DateUTC
2013-03-08 00:01:00,80.0,80.0,29.75,North,353,0.0,2.0,99,0.00,,,0.01,,2013-03-07 14:01:00,
2013-03-08 00:11:00,80.0,80.0,29.75,North,353,0.0,2.0,99,0.00,,,0.01,,2013-03-07 14:11:00,
2013-03-08 00:22:00,80.0,80.0,29.74,NW,315,0.0,2.0,99,0.00,,,0.01,,2013-03-07 14:22:00,
2013-03-08 00:41:00,80.0,80.0,29.74,NW,314,0.0,3.0,99,0.00,,,0.01,,2013-03-07 14:41:00,
2013-03-08 00:53:00,80.0,80.0,29.74,NW,314,0.0,2.0,99,0.00,,,0.01,,2013-03-07 14:53:00,
2013-03-08 01:01:00,80.0,80.0,29.74,NW,308,0.0,2.0,99,0.00,,,0.01,,2013-03-07 15:01:00,
2013-03-08 01:11:00,80.0,80.0,29.74,NW,308,0.0,2.0,99,0.00,,,0.01,,2013-03-07 15:11:00,
2013-03-08 01:21:00,80.0,80.0,29.73,NW,325,0.0,2.0,99,0.00,,,0.01,,2013-03-07 15:21:00,
2013-03-08 01:31:00,80.0,80.0,29.73,NW,314,2.0,3.0,99,0.00,,,0.01,,2013-03-07 15:31:00,
2013-03-08 01:42:00,80.0,80.0,29.73,NW,314,2.0,3.0,99,0.00,,,0.01,,2013-03-07 15:42:00,
2013-03-08 01:52:00,80.0,80.0,29.73,NW,318,1.0,3.0,99,0.00,,,0.01,,2013-03-07 15:52:00,
2013-03-08 02:01:00,80.0,80.0,29.73,NW,319,1.0,3.0,99,0.00,,,0.01,,2013-03-07 16:01:00,
2013-03-08 02:11:00,80.0,80.0,29.73,NW,319,1.0,3.0,99,0.00,,,0.01,,2013-03-07 16:11:00,
2013-03-08 02:22:00,79.0,79.0,29.73,NW,310,0.0,2.0,99,0.00,,,0.01,,2013-03-07 16:22:00,
2013-03-08 02:31:00,79.0,79.0,29.73,NW,317,0.0,3.0,99,0.00,,,0.01,,2013-03-07 16:31:00,
2013-03-08 02:42:00,79.0,79.0,29.73,NW,317,0.0,3.0,99,0.00,,,0.01,,2013-03-07 16:42:00,
2013-03-08 02:53:00,78.0,78.0,29.72,NW,316,0.0,2.0,99,0.00,,,0.01,,2013-03-07 16:53:00,
2013-03-08 03:01:00,78.0,78.0,29.71,NW,310,1.0,2.0,99,0.00,,,0.01,,2013-03-07 17:01:00,
2013-03-08 03:11:00,78.0,78.0,29.71,NW,310,1.0,2.0,99,0.00,,,0.01,,2013-03-07 17:11:00,
2013-03-08 03:21:00,78.0,78.0,29.70,NW,314,0.0,2.0,99,0.00,,,0.01,,2013-03-07 17:21:00,
2013-03-08 03:31:00,78.0,78.0,29.70,NW,314,0.0,2.0,99,0.00,,,0.01,,2013-03-07 17:31:00,
2013-03-08 03:42:00,78.0,78.0,29.70,NW,314,0.0,2.0,99,0.00,,,0.01,,2013-03-07 17:42:00,
2013-03-08 03:53:00,78.0,78.0,29.69,NW,314,0.0,1.0,99,0.00,,,0.01,,2013-03-07 17:53:00,
2013-03-08 04:01:00,78.0,78.0,29.69,NW,314,0.0,2.0,99,0.00,,,0.01,,2013-03-07 18:01:00,
2013-03-08 04:11:00,78.0,78.0,29.69,NW,314,0.0,2.0,99,0.00,,,0.01,,2013-03-07 18:11:00,
2013-03-08 04:21:00,78.0,78.0,29.69,NW,314,0.0,2.0,99,0.00,,,0.01,,2013-03-07 18:21:00,
2013-03-08 04:31:00,78.0,78.0,29.70,NW,314,0.0,2.0,99,0.00,,,0.01,,2013-03-07 18:31:00,
2013-03-08 04:41:00,78.0,78.0,29.70,NW,314,0.0,2.0,99,0.00,,,0.01,,2013-03-07 18:41:00,
2013-03-08 04:52:00,79.0,79.0,29.70,NW,314,0.0,2.0,99,0.00,,,0.01,,2013-03-07 18:52:00,
2013-03-08 05:02:00,79.0,79.0,29.70,NW,314,0.0,3.0,99,0.00,,,0.01,,2013-03-07 19:02:00,
2013-03-08 05:11:00,79.0,79.0,29.70,NW,314,0.0,3.0,99,0.00,,,0.01,,2013-03-07 19:11:00,
2013-03-08 05:22:00,79.0,79.0,29.70,NW,314,1.0,3.0,99,0.00,,,0.00,,2013-03-07 19:22:00,
2013-03-08 05:32:00,79.0,79.0,29.70,NW,318,0.0,2.0,99,0.00,,,0.00,,2013-03-07 19:32:00,
2013-03-08 05:42:00,79.0,79.0,29.70,NW,318,0.0,2.0,99,0.00,,,0.00,,2013-03-07 19:42:00,
2013-03-08 05:52:00,79.0,79.0,29.70,NW,318,0.0,2.0,99,0.00,,,0.00,,2013-03-07 19:52:00,
2013-03-08 06:01:00,79.0,79.0,29.71,NW,324,0.0,4.0,99,0.00,,,0.00,,2013-03-07 20:01:00,
2013-03-08 06:12:00,79.0,79.0,29.71,NW,324,0.0,4.0,99,0.00,,,0.00,,2013-03-07 20:12:00,
2013-03-08 06:22:00,79.0,79.0,29.71,NW,304,0.0,2.0,99,0.00,,,0.00,,2013-03-07 20:22:00,
2013-03-08 06:32:00,79.0,79.0,29.70,NW,314,0.0,2.0,99,0.00,,,0.00,,2013-03-07 20:32:00,
2013-03-08 06:41:00,79.0,79.0,29.70,NW,314,0.0,2.0,99,0.00,,,0.00,,2013-03-07 20:41:00,
2013-03-08 06:53:00,79.0,79.0,29.71,NW,314,0.0,2.0,99,0.00,,,0.00,,2013-03-07 20:53:00,
2013-03-08 07:01:00,79.0,79.0,29.71,NW,314,1.0,2.0,99,0.00,,,0.00,,2013-03-07 21:01:00,
2013-03-08 07:11:00,79.0,79.0,29.71,NW,314,1.0,2.0,99,0.00,,,0.00,,2013-03-07 21:11:00,
2013-03-08 07:21:00,79.0,79.0,29.72,NW,319,0.0,2.0,99,0.00,,,0.00,,2013-03-07 21:21:00,
2013-03-08 07:31:00,80.0,80.0,29.73,NW,314,0.0,2.0,99,0.00,,,0.00,,2013-03-07 21:31:00,
2013-03-08 07:42:00,80.0,80.0,29.73,NW,314,0.0,2.0,99,0.00,,,0.00,,2013-03-07 21:42:00,
2013-03-08 07:52:00,81.0,81.0,29.74,NW,319,0.0,2.0,99,0.00,,,0.00,,2013-03-07 21:52:00,
2013-03-08 08:01:00,81.0,81.0,29.75,NW,322,1.0,5.0,99,0.00,,,0.00,,2013-03-07 22:01:00,
2013-03-08 08:11:00,81.0,81.0,29.75,NW,322,1.0,5.0,99,0.00,,,0.00,,2013-03-07 22:11:00,
2013-03-08 08:21:00,80.0,80.0,29.76,NW,317,1.0,3.0,99,0.00,,,0.00,,2013-03-07 22:21:00,
2013-03-08 08:31:00,80.0,80.0,29.76,NW,314,0.0,3.0,99,0.00,,,0.00,,2013-03-07 22:31:00,
2013-03-08 08:41:00,80.0,80.0,29.76,NW,314,0.0,3.0,99,0.00,,,0.00,,2013-03-07 22:41:00,
2013-03-08 08:52:00,81.0,81.0,29.77,NW,314,0.0,3.0,99,0.00,,,0.00,,2013-03-07 22:52:00,
2013-03-08 09:01:00,81.0,81.0,29.77,NW,324,0.0,3.0,99,0.00,,,0.00,,2013-03-07 23:01:00,
2013-03-08 09:11:00,81.0,81.0,29.77,NW,324,0.0,3.0,99,0.00,,,0.00,,2013-03-07 23:11:00,
2013-03-08 09:21:00,82.0,82.0,29.78,NW,321,0.0,3.0,99,0.00,,,0.00,,2013-03-07 23:21:00,
2013-03-08 09:32:00,83.0,83.0,29.78,NW,315,0.0,2.0,99,0.00,,,0.00,,2013-03-07 23:32:00,
2013-03-08 09:42:00,83.0,83.0,29.78,NW,315,0.0,2.0,99,0.00,,,0.00,,2013-03-07 23:42:00,
2013-03-08 09:52:00,86.0,86.0,29.78,NW,316,0.0,2.0,99,0.00,,,0.00,,2013-03-07 23:52:00,
2013-03-08 10:02:00,89.0,86.0,29.76,NW,311,0.0,4.0,91,0.00,,,0.00,,2013-03-08 00:02:00,
2013-03-08 10:11:00,89.0,86.0,29.76,NW,311,0.0,4.0,91,0.00,,,0.00,,2013-03-08 00:11:00,
2013-03-08 10:22:00,90.0,86.0,29.76,NW,318,1.0,3.0,88,0.00,,,0.00,,2013-03-08 00:22:00,
2013-03-08 10:32:00,92.0,86.0,29.76,NW,307,0.0,6.0,83,0.00,,,0.00,,2013-03-08 00:32:00,
2013-03-08 10:42:00,92.0,86.0,29.76,NW,307,0.0,6.0,83,0.00,,,0.00,,2013-03-08 00:42:00,
2013-03-08 10:52:00,88.0,83.0,29.76,NW,314,1.0,4.0,85,0.00,,,0.00,,2013-03-08 00:52:00,
2013-03-08 11:01:00,87.0,85.0,29.76,NW,314,1.0,5.0,95,0.00,,,0.00,,2013-03-08 01:01:00,
2013-03-08 11:11:00,87.0,85.0,29.76,NW,314,1.0,5.0,95,0.00,,,0.00,,2013-03-08 01:11:00,
2013-03-08 11:21:00,86.0,84.0,29.76,NW,309,0.0,5.0,94,0.00,,,0.00,,2013-03-08 01:21:00,
2013-03-08 11:31:00,88.0,84.0,29.75,NW,312,0.0,4.0,87,0.00,,,0.00,,2013-03-08 01:31:00,
2013-03-08 11:42:00,88.0,84.0,29.75,NW,312,0.0,4.0,87,0.00,,,0.00,,2013-03-08 01:42:00,
2013-03-08 11:51:00,88.0,80.0,29.74,WNW,297,2.0,4.0,78,0.00,,,0.00,,2013-03-08 01:51:00,
2013-03-08 12:01:00,89.0,82.0,29.74,NW,316,1.0,3.0,81,0.00,,,0.00,,2013-03-08 02:01:00,
2013-03-08 12:11:00,88.0,83.0,29.73,WNW,302,1.0,5.0,84,0.00,,,0.00,,2013-03-08 02:11:00,
2013-03-08 12:21:00,88.0,83.0,29.73,WNW,302,1.0,5.0,84,0.00,,,0.00,,2013-03-08 02:21:00,
2013-03-08 12:31:00,89.0,83.0,29.72,NW,315,1.0,4.0,83,0.00,,,0.00,,2013-03-08 02:31:00,
2013-03-08 12:41:00,89.0,83.0,29.72,NW,315,1.0,4.0,83,0.00,,,0.00,,2013-03-08 02:41:00,
2013-03-08 12:52:00,89.0,83.0,29.72,NW,315,1.0,4.0,83,0.00,,,0.00,,2013-03-08 02:52:00,
2013-03-08 13:01:00,89.0,82.0,29.72,NW,314,2.0,6.0,80,0.00,,,0.00,,2013-03-08 03:01:00,
2013-03-08 13:11:00,89.0,82.0,29.72,NW,314,2.0,6.0,80,0.00,,,0.00,,2013-03-08 03:11:00,
2013-03-08 13:22:00,89.0,82.0,29.71,NW,314,2.0,7.0,79,0.00,,,0.00,,2013-03-08 03:22:00,
2013-03-08 13:32:00,89.0,81.0,29.71,NW,313,0.0,4.0,77,0.00,,,0.00,,2013-03-08 03:32:00,
2013-03-08 13:41:00,89.0,81.0,29.71,NW,313,0.0,4.0,77,0.00,,,0.00,,2013-03-08 03:41:00,
2013-03-08 13:52:00,91.0,79.0,29.70,NW,308,2.0,6.0,68,0.00,,,0.00,,2013-03-08 03:52:00,
2013-03-08 14:01:00,91.0,78.0,29.70,NW,311,2.0,5.0,67,0.00,,,0.00,,2013-03-08 04:01:00,
2013-03-08 14:11:00,91.0,78.0,29.70,NW,311,2.0,5.0,67,0.00,,,0.00,,2013-03-08 04:11:00,
2013-03-08 14:21:00,93.0,80.0,29.69,NW,316,2.0,6.0,66,0.00,,,0.00,,2013-03-08 04:21:00,
2013-03-08 14:31:00,93.0,80.0,29.69,NW,316,2.0,6.0,66,0.00,,,0.00,,2013-03-08 04:31:00,
2013-03-08 14:42:00,93.0,80.0,29.69,NW,316,2.0,6.0,66,0.00,,,0.00,,2013-03-08 04:42:00,
2013-03-08 14:51:00,91.0,80.0,29.68,WNW,300,1.0,4.0,70,0.00,,,0.00,,2013-03-08 04:51:00,
2013-03-08 15:01:00,89.0,80.0,29.67,NW,314,2.0,4.0,75,0.00,,,0.00,,2013-03-08 05:01:00,
2013-03-08 15:12:00,89.0,80.0,29.67,NW,314,2.0,4.0,75,0.00,,,0.00,,2013-03-08 05:12:00,
2013-03-08 15:22:00,86.0,80.0,29.68,NW,325,2.0,8.0,83,0.00,,,0.00,,2013-03-08 05:22:00,
2013-03-08 15:31:00,88.0,83.0,29.67,WNW,300,2.0,5.0,84,0.00,,,0.00,,2013-03-08 05:31:00,
2013-03-08 15:42:00,88.0,83.0,29.67,WNW,300,2.0,5.0,84,0.00,,,0.00,,2013-03-08 05:42:00,
2013-03-08 15:52:00,88.0,81.0,29.67,NW,311,2.0,4.0,81,0.00,,,0.00,,2013-03-08 05:52:00,
2013-03-08 16:01:00,87.0,81.0,29.66,WNW,302,2.0,5.0,82,0.00,,,0.00,,2013-03-08 06:01:00,
2013-03-08 16:11:00,87.0,81.0,29.66,WNW,302,2.0,5.0,82,0.00,,,0.00,,2013-03-08 06:11:00,
2013-03-08 16:21:00,88.0,81.0,29.66,NW,317,2.0,4.0,79,0.00,,,0.00,,2013-03-08 06:21:00,
2013-03-08 16:31:00,87.0,81.0,29.67,WNW,300,1.0,5.0,83,0.00,,,0.00,,2013-03-08 06:31:00,
2013-03-08 16:41:00,87.0,81.0,29.67,WNW,300,1.0,5.0,83,0.00,,,0.00,,2013-03-08 06:41:00,
2013-03-08 16:52:00,87.0,82.0,29.66,NW,312,1.0,4.0,85,0.00,,,0.00,,2013-03-08 06:52:00,
2013-03-08 17:01:00,87.0,81.0,29.66,NW,317,1.0,4.0,82,0.00,,,0.00,,2013-03-08 07:01:00,
2013-03-08 17:11:00,87.0,81.0,29.66,NW,317,1.0,4.0,82,0.00,,,0.00,,2013-03-08 07:11:00,
2013-03-08 17:21:00,85.0,82.0,29.67,NW,308,1.0,4.0,92,0.00,,,0.00,,2013-03-08 07:21:00,
2013-03-08 17:31:00,85.0,82.0,29.67,NW,308,1.0,4.0,92,0.00,,,0.00,,2013-03-08 07:31:00,
2013-03-08 17:41:00,85.0,82.0,29.67,NW,308,1.0,4.0,92,0.00,,,0.00,,2013-03-08 07:41:00,
2013-03-08 17:52:00,85.0,82.0,29.67,NW,307,0.0,4.0,91,0.00,,,0.00,,2013-03-08 07:52:00,
2013-03-08 18:01:00,85.0,82.0,29.67,NW,320,1.0,4.0,91,0.00,,,0.00,,2013-03-08 08:01:00,
2013-03-08 18:11:00,85.0,82.0,29.67,NW,320,1.0,4.0,91,0.00,,,0.00,,2013-03-08 08:11:00,
2013-03-08 18:21:00,83.0,81.0,29.68,NW,316,0.0,3.0,95,0.00,,,0.00,,2013-03-08 08:21:00,
2013-03-08 18:31:00,84.0,83.0,29.68,WNW,296,1.0,4.0,97,0.00,,,0.00,,2013-03-08 08:31:00,
2013-03-08 18:41:00,84.0,83.0,29.68,WNW,296,1.0,4.0,97,0.00,,,0.00,,2013-03-08 08:41:00,
2013-03-08 18:52:00,83.0,83.0,29.69,West,280,0.0,4.0,99,0.00,,,0.00,,2013-03-08 08:52:00,
2013-03-08 19:02:00,83.0,83.0,29.69,West,280,0.0,4.0,99,0.00,,,0.00,,2013-03-08 09:02:00,
2013-03-08 19:11:00,83.0,83.0,29.69,West,280,0.0,4.0,99,0.00,,,0.00,,2013-03-08 09:11:00,
2013-03-08 19:21:00,82.0,81.0,29.69,NW,309,0.0,3.0,98,0.00,,,0.00,,2013-03-08 09:21:00,
2013-03-08 19:31:00,82.0,81.0,29.69,NW,309,0.0,3.0,98,0.00,,,0.00,,2013-03-08 09:31:00,
2013-03-08 19:42:00,82.0,81.0,29.69,NW,309,0.0,3.0,98,0.00,,,0.00,,2013-03-08 09:42:00,
2013-03-08 19:51:00,82.0,82.0,29.70,NW,316,0.0,2.0,99,0.00,,,0.00,,2013-03-08 09:51:00,
2013-03-08 20:01:00,81.0,81.0,29.71,NW,314,0.0,2.0,99,0.00,,,0.00,,2013-03-08 10:01:00,
2013-03-08 20:11:00,81.0,81.0,29.71,NW,314,0.0,2.0,99,0.00,,,0.00,,2013-03-08 10:11:00,
2013-03-08 20:21:00,81.0,81.0,29.72,NW,311,0.0,3.0,99,0.00,,,0.00,,2013-03-08 10:21:00,
2013-03-08 20:31:00,81.0,81.0,29.73,NW,319,0.0,4.0,99,0.00,,,0.00,,2013-03-08 10:31:00,
2013-03-08 20:41:00,81.0,81.0,29.73,NW,319,0.0,4.0,99,0.00,,,0.00,,2013-03-08 10:41:00,
2013-03-08 20:52:00,80.0,80.0,29.73,NW,322,0.0,2.0,99,0.00,,,0.00,,2013-03-08 10:52:00,
2013-03-08 21:01:00,80.0,80.0,29.73,NW,322,0.0,2.0,99,0.00,,,0.00,,2013-03-08 11:01:00,
2013-03-08 21:11:00,80.0,80.0,29.73,NW,322,0.0,2.0,99,0.00,,,0.00,,2013-03-08 11:11:00,
2013-03-08 21:21:00,80.0,80.0,29.74,NW,315,1.0,2.0,99,0.00,,,0.00,,2013-03-08 11:21:00,
2013-03-08 21:32:00,80.0,80.0,29.75,NW,314,2.0,4.0,99,0.00,,,0.00,,2013-03-08 11:32:00,
2013-03-08 21:42:00,80.0,80.0,29.75,NW,314,2.0,4.0,99,0.00,,,0.00,,2013-03-08 11:42:00,
2013-03-08 21:52:00,80.0,80.0,29.75,NW,310,0.0,4.0,99,0.00,,,0.00,,2013-03-08 11:52:00,
2013-03-08 22:01:00,80.0,80.0,29.76,NW,309,1.0,4.0,99,0.00,,,0.00,,2013-03-08 12:01:00,
2013-03-08 22:11:00,80.0,80.0,29.76,NW,309,1.0,4.0,99,0.00,,,0.00,,2013-03-08 12:11:00,
2013-03-08 22:22:00,80.0,80.0,29.77,NW,310,2.0,6.0,99,0.00,,,0.00,,2013-03-08 12:22:00,
2013-03-08 22:32:00,80.0,80.0,29.77,NW,310,2.0,6.0,99,0.00,,,0.00,,2013-03-08 12:32:00,
2013-03-08 22:42:00,80.0,80.0,29.77,NW,310,2.0,6.0,99,0.00,,,0.00,,2013-03-08 12:42:00,
2013-03-08 22:52:00,77.0,77.0,29.78,NW,314,0.0,2.0,99,0.02,,,0.02,,2013-03-08 12:52:00,
2013-03-08 23:01:00,77.0,77.0,29.78,WSW,252,0.0,4.0,99,0.17,,,0.17,,2013-03-08 13:01:00,
2013-03-08 23:11:00,77.0,77.0,29.78,WSW,252,0.0,4.0,99,0.17,,,0.17,,2013-03-08 13:11:00,
2013-03-08 23:21:00,76.0,76.0,29.78,North,2,0.0,2.0,99,0.32,,,0.32,,2013-03-08 13:21:00,
2013-03-08 23:32:00,76.0,76.0,29.78,NNW,333,0.0,2.0,99,0.32,,,0.33,,2013-03-08 13:32:00,
2013-03-08 23:42:00,76.0,76.0,29.78,NNW,333,0.0,2.0,99,0.32,,,0.33,,2013-03-08 13:42:00,
2013-03-08 23:52:00,76.0,76.0,29.78,NNW,331,1.0,4.0,99,0.27,,,0.33,,2013-03-08 13:52:00,